Regional Weather Roundup
Issued by NWS Northern Indiana

Home | Current Version | Previous Version | Graphics & Text | Print | Product List | Glossary On
Versions: 1 2 3 4 5 6 7 8 9 10 11 12 13 14 15 16 17 18 19 20 21 22 23 24 25 26 27 28 29 30 31 32 33 34 35 36 37 38 39 40 41 42 43 44 45 46 47 48 49 50
101
ASUS43 KIWX 180310
RWRIWX

KIWX WEATHER ROUNDUP
NATIONAL WEATHER SERVICE NORTHERN INDIANA
1000 PM EST TUE JAN 17 2017

NOTE: "FAIR" INDICATES FEW OR NO CLOUDS BELOW 12,000 FEET WITH NO
SIGNIFICANT WEATHER AND/OR OBSTRUCTIONS TO VISIBILITY.

* THESE STATIONS ARE NOT UNDER NWS QUALITY CONTROL. THEY ALSO MAY NOT
  REPORT WEATHER SUCH AS PRECIPITATION OR FOG.

INZ001>027-180400-
NORTHERN INDIANA

CITY           SKY/WX    TMP DP  RH WIND       PRES   REMARKS
GARY*          CLOUDY    37  36  93 W9G21     30.01R FOG
VALPARAISO     CLOUDY    36  35  96 W14       30.00S FOG
LAPORTE*       CLOUDY    35  34  96 W8        29.99S FOG     WCI  28
KNOX*          CLOUDY    34  28  80 W12       30.00S WCI  25
SOUTH BEND     CLOUDY    35  35 100 W9        29.98S FOG     WCI  28
GOSHEN         CLOUDY    36  33  89 W16       29.97R FOG
ROCHESTER*     CLOUDY    37  37 100 W10G17    30.01S FOG
WARSAW*        CLOUDY    36  32  87 W13G18    29.99R HAZE
FORT WAYNE     CLOUDY    39  36  89 W17       29.98R
PERU/GRISSOM   DRIZZLE   37  37 100 W15       30.00R
MARION*        CLOUDY    37  37 100 W17G24    30.02R

$$
INZ028>050-180400-
CENTRAL INDIANA

CITY           SKY/WX    TMP DP  RH WIND       PRES   REMARKS
LAFAYETTE      CLOUDY    36  36 100 W13G20    30.05R FOG
KOKOMO*        LGT RAIN  37  36  96 W17       30.03R FOG
MUNCIE*        CLOUDY    42  39  89 W16G22    30.01R
INDIANAPOLIS   CLOUDY    41  37  86 W16       30.05R

$$
MIZ043>046-050>051-056>058-064>065-071>073-077>080-180400-
SOUTHWEST LOWER MICHIGAN

CITY           SKY/WX    TMP DP  RH WIND       PRES   REMARKS
BATTLE CREEK   CLOUDY    37  37 100 W13       29.93R
BENTON HARBOR  MIX PCPN  37  35  92 W13       29.96S FOG
COLDWATER*     CLOUDY    37  37 100 W10G16    29.93S FOG
HILLSDALE*     CLOUDY    36  36 100 W10       29.90F FOG
HOLLAND        CLOUDY    37  35  92 W9        29.93S FOG
GRAND RAPIDS   DRIZZLE   36  35  96 W12       29.90F FOG
KALAMAZOO      CLOUDY    37  34  89 W13G21    29.94R FOG
STURGIS*       CLOUDY    36  35  98 W13       29.94S
THREE RIVERS*  CLOUDY    36  36  97 W12G17    29.95R

$$
OHZ001>008-015>018-024>025-180400-
NORTHWEST OHIO

CITY           SKY/WX    TMP DP  RH WIND       PRES   REMARKS
DEFIANCE       CLOUDY    41  37  86 W8        29.96R
FINDLAY        CLOUDY    44  39  82 W18       29.94R
TOLEDO EXPRESS CLOUDY    40  40 100 W17       29.93S
TOLEDO METCALF CLOUDY    42  40  92 W15       29.93S
LIMA           CLOUDY    43  42  97 W17       29.96R

$$
AND FOR LAKE MICHIGAN COASTAL AND OPEN LAKE BUOY OBSERVATIONS

STATION/POSITION TEMP    WIND        PRES    VSBY  WAVE
                 AIR SEA DIR/SP/G                  HT/PER
                 (F)     (DEG/KT/KT) (MB)    (MI)  (FT/S)
CALUMET HARBOR    36     230/  9/ 14 1015.1R
BURNS HARBOR      35     250/ 12/ 15 1016.3R

$$
&&




USA.gov is the U.S. government's official web portal to all federal, state and local government web resources and services.